Back to catalog

STARLINK-30807

AliveCommunicationsVLEO
NORAD 58192·PAYLOAD·🇺🇸 United States

Launched Oct 30, 2023 from Cape Canaveral Space Force Station

Loading…

Next Passes (next 24 hours)

TLE

FreshSource: CelesTrak SupGP

Epoch: Sep 14, 2026, 14:21 UTC

1 58192C 23167T   26257.59840278  .00040239  00000+0  14575-2 0  2577
2 58192  43.0026 156.5781 0001426 263.9169 174.5223 15.27556974    10

Track STARLINK-30807 in real time with AllMySat

Download on the App Store